GW3830 Weather Reports


Display with metric or nautical units.
time (UTC)temp
F
wind
direction
speed
MPH
gust
MPH
rain 1hr
in
rain 24hr
in
rain mn
in
humidity
%
barometer
mb
20260504050410 48 245 0.0 0.0 0.00 0.00 0.00 43 1014.2
20260504045907 48 289 0.0 0.0 0.00 0.00 0.00 43 1014.1
20260504045402 48 254 0.0 0.0 0.00 0.00 0.00 42 1014.1
20260504044859 48 296 0.0 0.0 0.00 0.00 0.00 42 1014.2
20260504044356 48 241 0.0 0.0 0.00 0.00 0.00 42 1014.2
20260504043854 48 284 0.0 0.0 0.00 0.00 0.00 42 1014.3
20260504043350 48 272 0.0 0.0 0.00 0.00 0.00 42 1014.1
20260504042848 48 253 0.0 0.0 0.00 0.00 0.00 42 1014.1
20260504042344 48 271 0.0 0.0 0.00 0.00 0.00 43 1014.1
20260504041840 48 272 0.0 0.0 0.00 0.00 0.00 42 1014.1
20260504041337 48 281 0.0 0.0 0.00 0.00 0.00 41 1013.8
20260504040833 48 293 0.0 0.0 0.00 0.00 0.00 41 1014.0
20260504040331 48 293 0.0 0.0 0.00 0.00 0.00 41 1014.0
20260504035826 48 283 0.0 0.0 0.00 0.00 0.00 41 1014.2
20260504035324 48 295 0.0 0.0 0.00 0.00 0.00 41 1014.0
20260504034821 48 292 0.0 0.0 0.00 0.00 0.00 41 1014.0
20260504034319 48 295 0.0 0.0 0.00 0.00 0.00 40 1014.0
20260504033815 49 291 0.0 0.0 0.00 0.00 0.00 40 1013.9
20260504033314 49 298 0.0 0.0 0.00 0.00 0.00 40 1013.9
20260504032809 48 281 0.0 0.0 0.00 0.00 0.00 41 1013.9
20260504032307 48 287 0.0 0.0 0.00 0.00 0.00 41 1013.8
20260504031804 49 304 0.0 0.0 0.00 0.00 0.00 41 1013.7
20260504031301 49 284 0.0 0.0 0.00 0.00 0.00 40 1013.7
20260504030757 49 287 0.0 0.0 0.00 0.00 0.00 40 1013.7
20260504030254 49 280 0.0 0.0 0.00 0.00 0.00 40 1013.9
20260504025750 48 266 0.0 0.0 0.00 0.00 0.00 40 1013.8
20260504025248 49 277 0.0 0.0 0.00 0.00 0.00 40 1013.6
20260504024744 49 276 0.0 0.0 0.00 0.00 0.00 40 1013.9
20260504024241 48 276 0.0 0.0 0.00 0.00 0.00 41 1013.9
20260504023738 48 319 0.0 0.0 0.00 0.00 0.00 41 1013.8
20260504023234 48 278 0.0 0.0 0.00 0.00 0.00 41 1014.0
20260504022730 48 303 0.0 0.0 0.00 0.00 0.00 41 1013.8
20260504022226 48 315 0.0 0.0 0.00 0.00 0.00 42 1014.1
20260504021724 48 342 0.0 0.0 0.00 0.00 0.00 41 1014.1
20260504021221 48 307 0.0 0.0 0.00 0.00 0.00 43 1013.8
20260504020717 48 321 0.0 0.0 0.00 0.00 0.00 43 1013.9
20260504020214 47 291 0.0 0.0 0.00 0.00 0.00 44 1014.1
20260504015711 47 307 0.0 0.0 0.00 0.00 0.00 45 1014.1
20260504015207 47 307 0.0 0.0 0.00 0.00 0.00 45 1013.9
20260504014703 48 15 0.0 0.0 0.00 0.00 0.00 44 1013.8
20260504014200 48 313 0.0 0.0 0.00 0.00 0.00 43 1013.7
20260504013657 48 346 0.0 0.0 0.00 0.00 0.00 43 1013.5
20260504013154 48 346 0.0 0.0 0.00 0.00 0.00 43 1013.6
20260504012651 47 323 0.0 0.0 0.00 0.00 0.00 44 1013.5
20260504012149 47 329 0.0 0.0 0.00 0.00 0.00 44 1013.6
20260504011646 47 345 0.0 0.0 0.00 0.00 0.00 44 1013.6
20260504011142 48 330 0.0 0.0 0.00 0.00 0.00 43 1013.6
20260504010638 48 74 0.0 0.0 0.00 0.00 0.00 42 1013.5
20260504010134 49 327 0.0 0.0 0.00 0.00 0.00 41 1013.6
20260504005631 49 8 0.0 0.0 0.00 0.00 0.00 42 1013.1
20260504005128 49 265 0.0 0.0 0.00 0.00 0.00 42 1013.3
20260504004626 48 355 0.0 0.0 0.00 0.00 0.00 41 1013.4
20260504004123 48 330 0.0 0.0 0.00 0.00 0.00 41 1013.3
20260504003619 49 353 0.0 0.0 0.00 0.00 0.00 41 1013.4
20260504003110 49 321 0.0 0.0 0.00 0.00 0.00 41 1013.4
20260504002607 49 17 0.0 0.0 0.00 0.00 0.00 40 1013.0
20260504002105 50 354 0.0 0.0 0.00 0.00 0.00 39 1013.0
20260504001602 50 1 0.0 0.0 0.00 0.00 0.00 39 1013.1
20260504001058 50 273 0.0 0.0 0.00 0.00 0.00 38 1013.1
20260504000555 51 21 0.0 0.0 0.00 0.00 0.00 38 1013.3
20260504000053 51 289 0.0 0.0 0.00 0.00 0.00 37 1013.1
20260503235551 51 290 0.0 0.0 0.00 0.00 0.00 37 1013.1
20260503235047 52 247 1.0 2.0 0.00 0.00 0.00 36 1013.1
20260503234545 52 292 0.0 0.0 0.00 0.00 0.00 36 1013.0
20260503234043 52 327 0.0 0.0 0.00 0.00 0.00 36 1013.3
20260503233539 52 347 0.0 1.0 0.00 0.00 0.00 35 1013.4
20260503233035 53 333 2.0 5.0 0.00 0.00 0.00 34 1013.4
20260503232533 53 345 0.0 2.0 0.00 0.00 0.00 34 1013.1
20260503232030 53 328 2.0 7.0 0.00 0.00 0.00 34 1013.1
20260503231528 53 285 4.0 8.0 0.00 0.00 0.00 33 1013.0
20260503231024 53 0 0.0 0.0 0.00 0.00 0.00 33 1013.4
20260503230521 53 300 2.0 5.0 0.00 0.00 0.00 33 1013.1
20260503230018 53 234 4.0 5.0 0.00 0.00 0.00 32 1013.4
20260503225515 53 292 2.0 3.0 0.00 0.00 0.00 33 1013.4
20260503225010 53 325 6.0 8.0 0.00 0.00 0.00 32 1013.6
20260503224508 54 287 7.0 13.0 0.00 0.00 0.00 34 1013.1
20260503224005 54 355 2.0 6.0 0.00 0.00 0.00 33 1013.5
20260503223503 54 76 0.0 0.0 0.00 0.00 0.00 35 1013.1
20260503222957 54 302 0.0 0.0 0.00 0.00 0.00 34 1013.5
20260503222456 53 273 2.0 9.0 0.00 0.00 0.00 35 1013.4
20260503221949 54 266 0.0 0.0 0.00 0.00 0.00 34 1013.5
20260503221447 54 276 0.0 0.0 0.00 0.00 0.00 32 1013.4
20260503220944 54 304 0.0 0.0 0.00 0.00 0.00 33 1013.4
20260503220440 53 301 8.0 11.0 0.00 0.00 0.00 34 1013.3
20260503215937 54 252 0.0 0.0 0.00 0.00 0.00 33 1013.4
20260503215434 55 242 0.0 0.0 0.00 0.00 0.00 32 1013.3
20260503214932 55 276 0.0 0.0 0.00 0.00 0.00 32 1013.4
20260503214429 53 291 0.0 0.0 0.00 0.00 0.00 36 1013.5
20260503213926 53 289 9.0 10.0 0.00 0.00 0.00 34 1013.4
20260503213425 54 319 8.0 9.0 0.00 0.00 0.00 33 1013.5
20260503212920 54 229 0.0 0.0 0.00 0.00 0.00 33 1013.6
20260503212418 54 238 0.0 0.0 0.00 0.00 0.00 33 1013.5
20260503211915 54 274 4.0 8.0 0.00 0.00 0.00 33 1013.5
20260503211412 54 297 5.0 8.0 0.00 0.00 0.00 33 1013.5
20260503210906 54 293 2.0 7.0 0.00 0.00 0.00 34 1013.6
20260503210404 55 298 3.0 11.0 0.00 0.00 0.00 33 1013.5
20260503205858 55 303 0.0 0.0 0.00 0.00 0.00 36 1013.6
20260503205355 54 263 0.0 0.0 0.00 0.00 0.00 33 1013.6
20260503204852 54 258 0.0 0.0 0.00 0.00 0.00 33 1013.6
20260503204349 54 299 6.0 9.0 0.00 0.00 0.00 33 1013.8
20260503203846 53 301 7.0 8.0 0.00 0.00 0.00 35 1013.5
20260503203344 55 281 9.0 10.0 0.00 0.00 0.00 32 1013.7
20260503202841 53 356 0.0 0.0 0.00 0.00 0.00 35 1013.9
20260503202339 53 233 9.0 11.0 0.00 0.00 0.00 33 1013.8
20260503201837 54 336 2.0 6.0 0.00 0.00 0.00 32 1014.0
20260503201333 54 298 11.0 13.0 0.00 0.00 0.00 31 1013.9
20260503200831 54 291 0.0 0.0 0.00 0.00 0.00 33 1013.9
20260503200327 55 268 0.0 0.0 0.00 0.00 0.00 32 1014.0
20260503195824 54 289 0.0 0.0 0.00 0.00 0.00 32 1014.3
20260503195320 55 322 3.0 6.0 0.00 0.00 0.00 33 1014.3
20260503194818 54 316 0.0 0.0 0.00 0.00 0.00 33 1014.5
20260503194314 53 326 0.0 0.0 0.00 0.00 0.00 35 1014.6
20260503193810 54 269 0.0 0.0 0.00 0.00 0.00 35 1014.5
20260503193306 53 224 0.0 0.0 0.00 0.00 0.00 34 1014.5
20260503192802 54 12 5.0 14.0 0.00 0.00 0.00 35 1014.5
20260503192257 54 319 2.0 5.0 0.00 0.00 0.00 35 1014.7
20260503191754 54 268 6.0 11.0 0.00 0.00 0.00 34 1014.9
20260503191251 53 312 2.0 5.0 0.00 0.00 0.00 36 1015.2
20260503190748 53 5 2.0 6.0 0.00 0.00 0.00 33 1015.0
20260503190245 53 281 0.0 0.0 0.00 0.00 0.00 33 1015.2
20260503185742 54 302 3.0 8.0 0.00 0.00 0.00 33 1015.0
20260503185238 53 0 0.0 0.0 0.00 0.00 0.00 33 1015.1
20260503184732 52 313 0.0 0.0 0.00 0.00 0.00 33 1015.0
20260503184229 52 337 0.0 0.0 0.00 0.00 0.00 35 1015.1
20260503183725 52 350 0.0 2.0 0.00 0.00 0.00 33 1015.3
20260503183223 51 8 0.0 0.0 0.00 0.00 0.00 34 1015.4
20260503182721 52 0 7.0 13.0 0.00 0.00 0.00 31 1015.3
20260503182219 52 25 2.0 7.0 0.00 0.00 0.00 34 1015.3
20260503181715 51 273 0.0 0.0 0.00 0.00 0.00 36 1015.3
20260503181213 51 224 0.0 0.0 0.00 0.00 0.00 37 1015.5
20260503180709 50 261 0.0 0.0 0.00 0.00 0.00 36 1015.2
20260503180208 50 296 4.0 9.0 0.00 0.00 0.00 37 1015.5
20260503175704 49 40 0.0 0.0 0.00 0.00 0.00 38 1015.5
20260503175202 50 11 0.0 0.0 0.00 0.00 0.00 38 1015.9
20260503174657 50 327 0.0 0.0 0.00 0.00 0.00 38 1015.9
20260503174155 49 274 0.0 0.0 0.00 0.00 0.00 39 1015.8
20260503173650 48 89 0.0 0.0 0.00 0.00 0.00 38 1015.8
20260503173146 50 1 0.0 0.0 0.00 0.00 0.00 36 1016.0
20260503172644 50 27 0.0 0.0 0.00 0.00 0.00 38 1016.2
20260503172141 50 2 6.0 8.0 0.00 0.00 0.00 36 1015.8
20260503171637 50 11 1.0 3.0 0.00 0.00 0.00 38 1015.9
20260503171135 49 338 0.0 0.0 0.00 0.00 0.00 40 1016.1
20260503170632 48 11 0.0 0.0 0.00 0.00 0.00 40 1016.2
20260503170128 49 308 0.0 2.0 0.00 0.00 0.00 36 1016.0
20260503150520 44 291 9.0 11.0 0.00 0.00 0.00 43 1016.6
20260503131413 39 5 1.0 2.0 0.00 0.00 0.00 57 1016.4
20260503130910 39 300 2.0 6.0 0.00 0.00 0.00 58 1016.3
20260503130407 38 87 0.0 0.0 0.00 0.00 0.00 62 1016.3
20260503110811 32 274 0.0 0.0 0.00 0.00 0.00 88 1014.8
20260503110308 31 318 0.0 0.0 0.00 0.00 0.00 88 1014.3
20260503100234 30 353 0.0 0.0 0.00 0.00 0.00 89 1013.6
20260503090159 31 346 0.0 1.0 0.00 0.00 0.00 87 1013.5
20260503081630 32 54 0.0 1.0 0.00 0.00 0.00 83 1013.1
20260503081126 32 307 0.0 0.0 0.00 0.00 0.00 83 1013.1
20260503080622 32 326 0.0 0.0 0.00 0.00 0.00 83 1012.9
20260503080119 33 359 0.0 0.0 0.00 0.00 0.00 82 1013.0
20260503072556 34 32 0.0 0.0 0.00 0.00 0.00 78 1013.1
20260503072053 34 325 2.0 5.0 0.00 0.00 0.00 78 1012.9
20260503071550 34 271 3.0 8.0 0.00 0.00 0.00 78 1012.8
20260503071047 34 91 0.0 1.0 0.00 0.00 0.00 77 1012.9
20260503070543 34 285 6.0 9.0 0.00 0.00 0.00 77 1013.0